Change the Weather History Date:

Tuesday, March 12, 2013

  Actual Average Record
Temperature  
Mean Temperature 64 °F -  
Max Temperature 75 °F - - ()
Min Temperature 53 °F - - ()
Growing Degree Days 14 (Base 50)    
Moisture  
Dew Point 63 °F    
Average Humidity 83    
Maximum Humidity 100    
Minimum Humidity 34    
Precipitation  
Precipitation 0.02 in - - ()
Sea Level Pressure  
Sea Level Pressure 29.92 in    
Wind  
Wind Speed 14 mph ()    
Max Wind Speed 28 mph    
Max Gust Speed -    
T = Trace of Precipitation, MM = Missing Value Source: Averaged Metar Reports

Daily Weather History Graph

Daily Weather History Graph

Search for Another Location

Airport or City:

Trip Planner

Search our weather history database for the weather conditions in past years. The results will help you decide how hot, cold, wet, or windy it might be!

Date:

Astronomy

Mar. 12, 2013 Rise Set
Actual Time 5:25 AM AWST 5:48 PM AWST
Civil Twilight 5:01 AM AWST 6:12 PM AWST
Nautical Twilight 4:32 AM AWST 6:41 PM AWST
Astronomical Twilight 4:04 AM AWST 7:09 PM AWST
Moon 5:36 AM AWST (3/12) 5:48 PM AWST (3/12)
Length of Visible Light 13h 11m
Length of Day
12h 23m
New Moon, 0% of the Moon is Illuminated
Mar 12
New Moon
Mar 20
First Quarter
Mar 27
Full
Apr 3
Last Quarter
Apr 10
New

Hourly Weather History & Observations

Time (AWST) Temp. Dew Point Humidity Pressure Visibility Wind Dir Wind Speed Gust Speed Precip Events Conditions
12:00 AM 71 °F 71 °F 100% 29.71 in - SSW 11.5 mph - -  
12:00 AM 71.6 °F 71.6 °F 100% 29.71 in - SSW 11.5 mph - N/A   Unknown
1:00 AM 71.6 °F 71.6 °F 100% 29.71 in - South 9.2 mph - N/A   Unknown
2:00 AM 71 °F 71 °F 99% 29.71 in - South 6.9 mph - -  
2:00 AM 71.6 °F 71.6 °F 100% 29.71 in - South 6.9 mph - N/A   Unknown
2:53 AM 71.6 °F 71.6 °F 100% 29.74 in - SW 17.3 mph - N/A   Unknown
2:59 AM 71.6 °F 71.6 °F 100% 29.80 in - WSW 24.2 mph - N/A   Unknown
3:00 AM 71 °F 71 °F 99% 29.80 in - WSW 24.2 mph - -  
3:00 AM 71.6 °F 71.6 °F 100% 29.80 in - WSW 24.2 mph - N/A   Unknown
3:08 AM 69.8 °F 69.8 °F 100% 29.80 in - SW 20.7 mph - N/A   Unknown
4:00 AM 68.0 °F 68.0 °F 100% 29.77 in - South 11.5 mph - N/A   Unknown
5:00 AM 69 °F 69 °F 100% 29.76 in - South 11.5 mph - -  
5:00 AM 69.8 °F 69.8 °F 100% 29.77 in - South 11.5 mph - N/A   Unknown
6:00 AM 70 °F 70 °F 98% 29.79 in - South 9.2 mph - -  
6:00 AM 69.8 °F 69.8 °F 100% 29.80 in - South 9.2 mph - N/A   Unknown
7:00 AM 71.6 °F 71.6 °F 100% 29.83 in - South 8.1 mph - N/A   Unknown
8:00 AM 73 °F 72 °F 97% 29.86 in - South 6.9 mph - -  
8:00 AM 73.4 °F 71.6 °F 94% 29.86 in - South 6.9 mph - N/A   Unknown
8:47 AM 75.2 °F 73.4 °F 94% 29.92 in - SSW 17.3 mph - N/A   Unknown
9:00 AM 74 °F 73 °F 97% 29.90 in - SSW 19.6 mph - -  
9:00 AM 73.4 °F 73.4 °F 100% 29.92 in - SSW 19.6 mph - N/A   Unknown
10:00 AM 71.6 °F 71.6 °F 100% 29.92 in - SSW 18.4 mph - N/A   Unknown
10:51 AM 69.8 °F 69.8 °F 100% 29.95 in - SSW 24.2 mph - N/A   Unknown
11:00 AM 69 °F 68 °F 96% 29.94 in - SSW 27.6 mph - -  
11:00 AM 68.0 °F 68.0 °F 100% 29.95 in - SSW 27.6 mph - N/A   Unknown
12:00 PM 68 °F 68 °F 99% 29.95 in - SSW 25.3 mph - -  
12:00 PM 68.0 °F 68.0 °F 100% 29.95 in - SSW 25.3 mph - N/A   Unknown
1:00 PM 68.0 °F 64.4 °F 88% 29.98 in - SSW 26.5 mph - N/A   Unknown
2:00 PM 70 °F 59 °F 61% 29.96 in - South 23.0 mph - -  
2:00 PM 69.8 °F 59.0 °F 68% 29.98 in - South 23.0 mph - N/A   Unknown
3:00 PM 71 °F 57 °F 51% 29.98 in - SSW 24.2 mph - -  
3:00 PM 71.6 °F 57.2 °F 60% 29.98 in - SSW 24.2 mph - N/A   Unknown
4:00 PM 73.4 °F 51.8 °F 47% 30.01 in - SSW 24.2 mph - N/A   Unknown
5:00 PM 69 °F 47 °F 34% 30.02 in - South 25.3 mph - -  
5:00 PM 69.8 °F 46.4 °F 43% 30.04 in - South 25.3 mph - N/A   Unknown
6:00 PM 65 °F 47 °F 41% 30.06 in - South 17.3 mph - -  
6:00 PM 66.2 °F 46.4 °F 49% 30.06 in - South 17.3 mph - N/A   Unknown
7:00 PM 62.6 °F 46.4 °F 55% 30.09 in - South 12.7 mph - N/A   Unknown
8:00 PM 62 °F 48 °F 50% 30.12 in - South 13.8 mph - -  
8:00 PM 62.6 °F 48.2 °F 59% 30.12 in - South 13.8 mph - N/A   Unknown
9:00 PM 58 °F 47 °F 58% 30.14 in - SSW 8.1 mph - -  
9:00 PM 57.2 °F 46.4 °F 67% 30.15 in - SSW 8.1 mph - N/A   Unknown
10:00 PM 55.4 °F 46.4 °F 72% 30.15 in - SW 6.9 mph - N/A   Unknown
11:00 PM 54 °F 47 °F 72% 30.13 in - SW 9.2 mph - -  
11:00 PM 53.6 °F 48.2 °F 82% 30.12 in - SW 9.2 mph - N/A   Unknown